This is the latest recevied weather packets stored in our database for station/object KD8OZS. If no packets are shown the sender has not sent any weather packets the latest 1 day(s).
| Time | Temp. | Humidity | Pressure | Rain* | Wind** | Luminosity | Snow |
|---|---|---|---|---|---|---|---|
| 1778040645 | 9.44° C | 98% | 1000.4 hPa | 1.78 mm | - | 0 W/m² | - |
| 1778040343 | 9.44° C | 98% | 1000.5 hPa | 3.05 mm | - | 0 W/m² | - |
| 1778040039 | 9.44° C | 98% | 1000.6 hPa | 3.05 mm | - | 0 W/m² | - |
| 1778039736 | 9.44° C | 98% | 1000.9 hPa | 3.05 mm | - | 0 W/m² | - |
| 1778039433 | 9.44° C | 98% | 1001 hPa | 3.05 mm | - | 0 W/m² | - |
| 1778039130 | 9.44° C | 98% | 1001 hPa | 4.83 mm | - | 0 W/m² | - |
| 1778038827 | 9.44° C | 98% | 1000.9 hPa | 6.1 mm | - | 0 W/m² | - |
| 1778038524 | 9.44° C | 98% | 1000.9 hPa | 4.83 mm | - | 0 W/m² | - |
| 1778037919 | 10° C | 98% | 1001.1 hPa | 3.05 mm | - | 0 W/m² | - |
| 1778037615 | 10° C | 98% | 1001.1 hPa | 3.05 mm | - | 0 W/m² | - |
| 1778036405 | 10.56° C | 98% | 1000.7 hPa | 3.05 mm | - | 0 W/m² | - |
| 1778035190 | 10.56° C | 98% | 1001 hPa | 3.05 mm | - | 0 W/m² | - |
| 1778034887 | 10.56° C | 98% | 1000.9 hPa | 3.05 mm | - | 0 W/m² | - |
| 1778034584 | 10.56° C | 98% | 1001 hPa | 3.56 mm | - | 0 W/m² | - |
| 1778034282 | 10.56° C | 98% | 1000.9 hPa | 1.78 mm | - | 0 W/m² | - |
| 1778033980 | 10.56° C | 98% | 1000.7 hPa | 1.27 mm | - | 0 W/m² | - |
| 1778033373 | 10.56° C | 98% | 1001.1 hPa | 0 mm | - | 0 W/m² | - |
| 1778032466 | 11.67° C | 98% | 1000.9 hPa | 1.27 mm | - | 0 W/m² | - |
| 1778031860 | 11.67° C | 98% | 1000.5 hPa | 3.05 mm | - | 0 W/m² | - |
| 1778031254 | 13.33° C | 97% | 1000.5 hPa | 6.1 mm | - | 0 W/m² | - |
| 1778030950 | 13.89° C | 98% | 1000.4 hPa | 8.89 mm | - | 0 W/m² | - |
| 1778030647 | 13.89° C | 98% | 1000.4 hPa | 9.65 mm | - | 0 W/m² | - |
| 1778030344 | 13.89° C | 98% | 999.9 hPa | 13.72 mm | - | 0 W/m² | - |
| 1778030041 | 13.89° C | 98% | 999.9 hPa | 12.7 mm | - | 0 W/m² | - |
| 1778029738 | 13.89° C | 98% | 999.7 hPa | 7.87 mm | - | 0 W/m² | - |
* Rain latest hour (hover to see other rain measurements)
** Current wind speed in m/s (hover to see current wind gust speed)